Weather History for Mount Airy, NC

Change the Weather History Date:

Monday, December 24, 2012

  Actual Average (KINT) Record (KINT)
Temperature  
Mean Temperature 40 °F -  
Max Temperature 43 °F 47 °F 70 °F (1990)
Min Temperature 38 °F 29 °F 1 °F (1989)
Degree Days  
Heating Degree Days 24    
Moisture  
Dew Point 37 °F    
Average Humidity 85    
Maximum Humidity 92    
Minimum Humidity 52    
Precipitation  
Precipitation 0.88 in - - ()
Sea Level Pressure  
Sea Level Pressure 29.93 in    
Wind  
Wind Speed 0 mph (South)    
Max Wind Speed 5 mph    
Max Gust Speed -    
Visibility 4 miles    
Events Fog , Rain    
Averages and records for this station are not official NWS values.
T = Trace of Precipitation, MM = Missing Value Source: NWS Daily Summary

Daily Weather History Graph

Daily Weather History Graph

Search for Another Location

Airport:

Trip Planner

Search our weather history database for the weather conditions in past years. The results will help you decide how hot, cold, wet, or windy it might be!

Date:

Astronomy

Dec. 24, 2012 Rise Set
Actual Time 7:31 AM EST 5:12 PM EST
Civil Twilight 7:03 AM EST 5:41 PM EST
Nautical Twilight 6:30 AM EST 6:13 PM EST
Astronomical Twilight 5:59 AM EST 6:44 PM EST
Moon 2:36 PM EST (12/24) 4:11 AM EST (12/24)
Length of Visible Light 10h 38m
Length of Day
9h 40m
Waxing Gibbous, 88% of the Moon is Illuminated
Dec 24
Waxing Gibbous
Dec 28
Full
Jan 4
Last Quarter
Jan 11
New
Jan 18
First Quarter

Hourly Weather History & Observations

Time (EST) Temp. Windchill Dew Point Humidity Pressure Visibility Wind Dir Wind Speed Gust Speed Precip Events Conditions
12:15 AM 40.3 °F - 27.9 °F 61% 29.99 in 10.0 mi Calm Calm - N/A   Clear
12:35 AM 38.3 °F - 29.3 °F 70% 29.99 in 10.0 mi Calm Calm - N/A   Clear
12:55 AM 41.0 °F - 26.1 °F 55% 29.99 in 10.0 mi Calm Calm - N/A   Clear
1:15 AM 40.1 °F - 28.8 °F 64% 29.98 in 10.0 mi Calm Calm - N/A   Clear
1:35 AM 41.9 °F - 25.2 °F 52% 29.98 in 10.0 mi Calm Calm - N/A   Clear
1:55 AM 39.9 °F - 28.0 °F 63% 29.98 in 10.0 mi Calm Calm - N/A   Mostly Cloudy
2:15 AM 41.7 °F - 25.2 °F 52% 29.98 in 10.0 mi Calm Calm - N/A   Overcast
2:35 AM 40.6 °F - 31.3 °F 69% 29.97 in 10.0 mi Calm Calm - N/A   Overcast
2:55 AM 41.5 °F - 31.6 °F 68% 29.97 in 10.0 mi Calm Calm - N/A   Overcast
3:15 AM 41.2 °F - 31.8 °F 69% 29.97 in 10.0 mi Calm Calm - N/A   Overcast
3:35 AM 41.9 °F - 31.8 °F 67% 29.96 in 10.0 mi Calm Calm - N/A   Overcast
3:55 AM 41.4 °F - 31.6 °F 68% 29.96 in 10.0 mi Calm Calm - N/A   Overcast
4:15 AM 41.9 °F - 31.8 °F 67% 29.96 in 10.0 mi Calm Calm - N/A   Light Drizzle
4:35 AM 41.5 °F - 34.3 °F 76% 29.95 in 10.0 mi Calm Calm - N/A   Overcast
4:55 AM 42.1 °F - 34.2 °F 74% 29.94 in 10.0 mi Calm Calm - N/A Rain Light Rain
5:15 AM 41.9 °F - 35.4 °F 78% 29.95 in 10.0 mi Calm Calm - N/A   Overcast
5:35 AM 41.2 °F 38.2 °F 34.5 °F 77% 29.97 in 10.0 mi West 4.6 mph - N/A Rain Light Rain
5:55 AM 39.0 °F - 34.5 °F 84% 29.96 in 7.0 mi Calm Calm - N/A Rain Light Rain
6:15 AM 39.0 °F - 35.2 °F 86% 29.97 in 3.0 mi Calm Calm - 0.04 in Rain Rain
6:35 AM 38.7 °F - 35.6 °F 89% 29.97 in 3.0 mi Calm Calm - 0.10 in Rain Rain
6:55 AM 38.5 °F - 35.8 °F 90% 29.98 in 5.0 mi Calm Calm - 0.12 in Rain Light Rain
7:15 AM 38.7 °F - 36.0 °F 90% 29.97 in 5.0 mi Calm Calm - 0.02 in Rain Light Rain
7:35 AM 38.5 °F - 35.8 °F 90% 29.97 in 3.0 mi Calm Calm - 0.08 in Rain Rain
7:55 AM 38.5 °F - 35.8 °F 90% 29.95 in 3.0 mi Calm Calm - 0.13 in Rain Light Rain
8:15 AM 38.8 °F - 36.1 °F 90% 29.94 in 4.0 mi Calm Calm - 0.03 in Rain Rain
8:35 AM 38.8 °F 36.5 °F 36.3 °F 91% 29.95 in 4.0 mi SSE 3.5 mph - 0.08 in Rain Rain
8:55 AM 38.8 °F 36.5 °F 36.5 °F 91% 29.96 in 1.5 mi SW 3.5 mph - 0.14 in Rain Rain
9:15 AM 38.8 °F - 36.5 °F 91% 29.95 in 3.0 mi Calm Calm - 0.01 in Rain Light Rain
9:35 AM 38.8 °F - 36.5 °F 91% 29.97 in 3.0 mi Calm Calm - 0.03 in Rain Light Rain
9:55 AM 39.2 °F - 36.9 °F 91% 29.96 in 1.2 mi Calm Calm - 0.08 in Rain Light Rain
10:15 AM 39.4 °F - 37.0 °F 91% 29.96 in 2.0 mi Calm Calm - 0.02 in Rain Light Rain
10:35 AM 40.1 °F 38.0 °F 37.8 °F 91% 29.95 in 1.0 mi SE 3.5 mph - 0.06 in Rain Rain
10:55 AM 40.3 °F - 37.9 °F 91% 29.95 in 1.5 mi Calm Calm - 0.12 in Rain Rain
11:15 AM 40.5 °F - 38.3 °F 92% 29.94 in 1.5 mi Calm Calm - 0.06 in Rain Rain
11:35 AM 40.5 °F - 38.3 °F 92% 29.92 in 1.8 mi Calm Calm - 0.11 in Rain Rain
11:55 AM 40.8 °F - 38.5 °F 91% 29.91 in 3.0 mi Calm Calm - 0.13 in Rain Rain
12:15 PM 41.2 °F - 38.8 °F 91% 29.92 in 2.0 mi Calm Calm - 0.01 in Rain Rain
12:35 PM 41.0 °F - 38.7 °F 91% 29.90 in 1.2 mi Calm Calm - 0.03 in Rain Rain
12:55 PM 41.2 °F - 38.8 °F 91% 29.91 in 1.8 mi Calm Calm - 0.06 in Rain Rain
1:15 PM 41.4 °F 39.4 °F 39.2 °F 92% 29.89 in 1.0 mi SSE 3.5 mph - 0.03 in Rain Rain
1:35 PM 41.9 °F 40.0 °F 39.4 °F 91% 29.88 in 1.8 mi SSE 3.5 mph - 0.07 in Rain Heavy Rain
1:55 PM 41.9 °F 39.0 °F 39.6 °F 91% 29.88 in 1.8 mi South 4.6 mph - 0.08 in   Drizzle
2:15 PM 41.9 °F - 39.6 °F 91% 29.88 in 1.2 mi Calm Calm - 0.01 in   Heavy Drizzle
2:35 PM 41.9 °F 40.0 °F 39.6 °F 91% 29.87 in 1.5 mi SW 3.5 mph - 0.01 in   Drizzle
2:55 PM 42.1 °F - 39.7 °F 91% 29.87 in 1.2 mi Calm Calm - 0.01 in   Light Drizzle
3:15 PM 42.1 °F - 39.9 °F 92% 29.87 in 1.5 mi Calm Calm - 0.01 in   Overcast
3:35 PM 42.4 °F - 40.1 °F 91% 29.87 in 1.0 mi Calm Calm - 0.01 in   Overcast
3:55 PM 42.6 °F - 40.3 °F 91% 29.86 in 1.5 mi Calm Calm - 0.01 in   Overcast
4:15 PM 42.8 °F - 40.5 °F 91% 29.87 in 1.8 mi Calm Calm - N/A   Overcast
4:35 PM 43.0 °F - 40.6 °F 91% 29.86 in 2.0 mi Calm Calm - N/A   Overcast
4:55 PM 43.0 °F - 40.6 °F 91% 29.87 in 2.0 mi Calm Calm - N/A   Overcast
5:15 PM 43.0 °F - 40.6 °F 91% 29.87 in 2.5 mi Calm Calm - N/A   Overcast
5:35 PM 42.8 °F - 40.5 °F 91% 29.88 in 2.0 mi Calm Calm - N/A   Overcast
5:55 PM 42.8 °F - 40.5 °F 91% 29.88 in 1.5 mi Calm Calm - N/A   Overcast
6:15 PM 42.8 °F - 40.5 °F 91% 29.88 in 1.2 mi Calm Calm - N/A   Overcast
6:35 PM 42.8 °F - 40.5 °F 91% 29.88 in 0.8 mi Calm Calm - N/A   Overcast
6:55 PM 42.8 °F - 40.5 °F 91% 29.88 in 0.8 mi Calm Calm - N/A   Overcast
7:15 PM 42.8 °F - 40.5 °F 91% 29.88 in 0.5 mi Calm Calm - N/A Fog Fog
7:35 PM 43.0 °F - 40.6 °F 91% 29.89 in 0.5 mi Calm Calm - N/A Fog Fog
7:55 PM 43.0 °F - 40.6 °F 91% 29.89 in 0.2 mi Calm Calm - N/A Fog Fog
8:15 PM 42.8 °F - 40.6 °F 92% 29.89 in 0.2 mi Calm Calm - N/A Fog Fog
8:35 PM 42.8 °F - 40.5 °F 91% 29.89 in 0.2 mi Calm Calm - N/A Fog Fog
8:55 PM 42.8 °F - 40.5 °F 91% 29.90 in 0.2 mi Calm Calm - N/A Fog Fog
9:15 PM 42.8 °F - 40.5 °F 91% 29.91 in 0.2 mi Calm Calm - N/A Fog Fog
9:35 PM 42.8 °F - 40.5 °F 91% 29.92 in 0.2 mi Calm Calm - N/A Fog Fog
9:55 PM 42.8 °F - 40.5 °F 91% 29.91 in 0.5 mi Calm Calm - N/A Fog Fog
10:15 PM 42.8 °F - 40.5 °F 91% 29.92 in 0.5 mi Calm Calm - N/A Fog Fog
10:35 PM 42.8 °F - 40.5 °F 91% 29.91 in 0.5 mi Calm Calm - N/A Fog Fog
10:55 PM 42.8 °F - 40.5 °F 91% 29.90 in 0.5 mi Calm Calm - N/A Fog Fog
11:15 PM 42.6 °F - 40.5 °F 92% 29.90 in 0.5 mi Calm Calm - N/A Fog Fog
11:35 PM 42.4 °F - 40.3 °F 92% 29.91 in 1.0 mi Calm Calm - N/A   Overcast
11:55 PM 42.3 °F - 40.1 °F 92% 29.91 in 1.5 mi Calm Calm - N/A   Overcast